Flag for Poland Weather past 2 weeks in Tychy, Poland

Now
52 °F

Passing clouds.


Feels Like: 50 °F
Forecast: 40 / 50 °F
Wind: 6 mph from East

Location: Katowice Airport

Current Time: Oct 22, 2014 at 4:37:23 AM

Latest Report: Oct 22, 2014 at 4:00 AM


Visibility: N/A

Pressure: 29.53 "Hg

Humidity: 82%

Dew point: 46 °F

Location of TychyLocation

Historic Weather in Tychy — Graph

°F

Tychy temperature yesterday

Maximum temperature yesterday: 59 °F (at 2:00 PM)
Minimum temperature yesterday: 50 °F (at 2:00 AM)
Average temperature yesterday: 53 °F

Past Weeks' High & Low Weather Summary

 TemperatureHumidityPressure
High75 °F (Oct 11, 3:00 PM)100% (Oct 7, 3:00 AM)30.33 "Hg (Oct 7, 3:00 AM)
Low39 °F (Oct 7, 3:00 AM)50% (Oct 9, 1:30 PM)29.53 "Hg (Oct 22, 3:00 AM)
Average57 °F85%29.95 "Hg
* Reported Oct 7 3:00 AM — Oct 22 3:00 AM, Tychy, Weather by CustomWeather, © 2014

Note: Actual official high and low records may vary slightly from our data, if they occured in-between our weather recording intervals... More about our weather records

Advertising

Tychy weather history for previous 24 hours

 ConditionsComfort  
Time TempWeatherWind HumidityBarometerVisibility
3:00 AM
Oct 22
52 °FClear.6 mph82%29.53 "Hg10 mi
2:30 AM52 °FClear.3 mph88%29.56 "Hg10 mi
2:00 AM52 °FPassing clouds.3 mph88%29.56 "HgN/A
1:30 AM52 °FPassing clouds.5 mph88%29.59 "HgN/A
1:00 AM50 °FPassing clouds.3 mph88%29.56 "HgN/A
12:30 AM54 °FPassing clouds.3 mph77%29.56 "HgN/A
12:00 AM54 °FPassing clouds.6 mph77%29.59 "HgN/A
11:30 PM
Oct 21
54 °FClear.6 mph72%29.62 "Hg10 mi
11:00 PM52 °FPassing clouds.7 mph77%29.62 "HgN/A
10:30 PM54 °FPassing clouds.7 mph72%29.62 "HgN/A
10:00 PM54 °FPassing clouds.6 mph72%29.65 "HgN/A
9:30 PM52 °FPassing clouds.5 mph77%29.65 "HgN/A
9:00 PM52 °FPassing clouds.5 mph77%29.68 "HgN/A
8:30 PM54 °FClear.5 mph72%29.68 "Hg10 mi
8:00 PM54 °FPassing clouds.5 mph72%29.68 "HgN/A
7:30 PM54 °FPassing clouds.3 mph72%29.71 "HgN/A
7:00 PM54 °FPassing clouds.5 mph77%29.71 "HgN/A
6:30 PM54 °FScattered clouds.3 mph77%29.71 "Hg5 mi
6:00 PM55 °FClear.2 mph72%29.74 "Hg5 mi
5:30 PM57 °FPassing clouds.2 mph63%29.74 "HgN/A
5:00 PM59 °FPassing clouds.3 mph63%29.74 "HgN/A
4:30 PM59 °FPassing clouds.6 mph63%29.74 "HgN/A
4:00 PM59 °FPassing clouds.7 mph63%29.77 "HgN/A
3:30 PM57 °FPassing clouds.6 mph72%29.77 "HgN/A
3:00 PM57 °FScattered clouds.7 mph67%29.77 "HgN/A
2:30 PM59 °FScattered clouds.8 mph68%29.80 "HgN/A
2:00 PM59 °FScattered clouds.9 mph68%29.80 "HgN/A
1:30 PM57 °FScattered clouds.9 mph72%29.80 "HgN/A
1:00 PM57 °FScattered clouds.9 mph72%29.83 "HgN/A
12:30 PM57 °FScattered clouds.9 mph72%29.83 "HgN/A
12:00 PM55 °FScattered clouds.10 mph82%29.86 "HgN/A
11:30 AM54 °FScattered clouds.9 mph88%29.86 "HgN/A
11:00 AM54 °FSprinkles. Broken clouds.9 mph82%29.86 "HgN/A
10:30 AM54 °FPassing clouds.8 mph82%29.86 "HgN/A
10:00 AM54 °FPassing clouds.7 mph88%29.86 "HgN/A
9:30 AM52 °FPassing clouds.6 mph88%29.86 "HgN/A
9:00 AM52 °FPassing clouds.6 mph88%29.86 "HgN/A
8:30 AM50 °FPassing clouds.5 mph94%29.86 "HgN/A
8:00 AM50 °FPassing clouds.5 mph88%29.86 "HgN/A
7:30 AM50 °FPassing clouds.5 mph94%29.86 "HgN/A
7:00 AM50 °FPassing clouds.3 mph94%29.86 "HgN/A
6:30 AM50 °FPassing clouds.6 mph94%29.86 "HgN/A
6:00 AM50 °FPassing clouds.7 mph94%29.86 "HgN/A
5:00 AM50 °FPassing clouds.6 mph88%29.86 "HgN/A
4:30 AM50 °FSprinkles. Passing clouds.7 mph94%29.86 "HgN/A
4:00 AM52 °FPassing clouds.6 mph82%29.86 "HgN/A
Weather by CustomWeather, © 2014

See weather overviewHow to use our weather pages